TimeCDT,TemperatureF,Dew PointF,Humidity,Sea Level PressureIn,VisibilityMPH,Wind Direction,Wind SpeedMPH,Gust SpeedMPH,PrecipitationIn,Events,Conditions,WindDirDegrees,DateUTC
12:15 AM,42.8,33.8,70,30.24,10.0,North,9.2,-,N/A,,Overcast,10,2012-10-26 05:15:00
12:35 AM,42.8,33.8,70,30.25,10.0,North,6.9,-,N/A,,Overcast,350,2012-10-26 05:35:00
1:15 AM,42.8,32.0,66,30.25,10.0,North,6.9,-,N/A,,Overcast,360,2012-10-26 06:15:00
1:35 AM,42.8,30.2,61,30.26,10.0,North,9.2,18.4,N/A,,Overcast,10,2012-10-26 06:35:00
1:55 AM,42.8,30.2,61,30.26,10.0,North,8.1,17.3,N/A,,Overcast,10,2012-10-26 06:55:00
2:15 AM,42.8,30.2,61,30.27,10.0,North,6.9,-,N/A,,Overcast,360,2012-10-26 07:15:00
2:35 AM,41.0,30.2,65,30.27,10.0,North,10.4,18.4,N/A,,Overcast,10,2012-10-26 07:35:00
2:55 AM,41.0,28.4,61,30.28,10.0,North,10.4,17.3,N/A,,Overcast,350,2012-10-26 07:55:00
3:15 AM,39.2,28.4,65,30.29,10.0,North,9.2,16.1,N/A,,Overcast,350,2012-10-26 08:15:00
3:35 AM,39.2,28.4,65,30.29,10.0,North,9.2,17.3,N/A,,Overcast,350,2012-10-26 08:35:00
3:55 AM,39.2,28.4,65,30.29,10.0,North,6.9,-,N/A,,Overcast,10,2012-10-26 08:55:00
4:15 AM,39.2,28.4,65,30.29,10.0,North,5.8,-,N/A,,Overcast,350,2012-10-26 09:15:00
4:35 AM,39.2,28.4,65,30.29,10.0,North,8.1,17.3,N/A,,Overcast,10,2012-10-26 09:35:00
4:55 AM,39.2,26.6,61,30.30,10.0,North,5.8,-,N/A,,Overcast,360,2012-10-26 09:55:00
5:15 AM,39.2,26.6,61,30.31,10.0,North,4.6,-,N/A,,Overcast,10,2012-10-26 10:15:00
5:35 AM,39.2,26.6,61,30.32,10.0,North,6.9,-,N/A,,Overcast,10,2012-10-26 10:35:00
5:55 AM,39.2,26.6,61,30.33,10.0,North,6.9,-,N/A,,Overcast,360,2012-10-26 10:55:00
6:15 AM,39.2,26.6,61,30.34,10.0,North,4.6,-,N/A,,Overcast,10,2012-10-26 11:15:00
6:35 AM,39.2,28.4,65,30.34,10.0,North,8.1,-,N/A,,Overcast,350,2012-10-26 11:35:00
6:55 AM,39.2,26.6,61,30.35,10.0,North,6.9,-,N/A,,Overcast,360,2012-10-26 11:55:00
7:15 AM,37.4,26.6,65,30.35,10.0,NNW,6.9,-,N/A,,Overcast,340,2012-10-26 12:15:00
7:55 AM,37.4,26.6,65,30.36,10.0,North,8.1,-,N/A,,Overcast,10,2012-10-26 12:55:00
8:35 AM,39.2,28.4,65,30.37,10.0,NE,8.1,16.1,N/A,,Overcast,40,2012-10-26 13:35:00
8:55 AM,39.2,26.6,61,30.39,10.0,NNE,9.2,-,N/A,,Mostly Cloudy,30,2012-10-26 13:55:00
9:15 AM,39.2,26.6,61,30.39,10.0,NNE,12.7,21.9,N/A,,Scattered Clouds,30,2012-10-26 14:15:00
9:35 AM,39.2,24.8,56,30.40,10.0,NNE,10.4,19.6,N/A,,Mostly Cloudy,30,2012-10-26 14:35:00
10:15 AM,41.0,24.8,53,30.40,10.0,North,10.4,19.6,N/A,,Mostly Cloudy,10,2012-10-26 15:15:00
10:35 AM,41.0,24.8,53,30.40,10.0,NNE,8.1,18.4,N/A,,Scattered Clouds,20,2012-10-26 15:35:00
10:55 AM,42.8,24.8,49,30.40,10.0,North,9.2,18.4,N/A,,Partly Cloudy,360,2012-10-26 15:55:00
11:15 AM,42.8,26.6,53,30.40,10.0,North,10.4,18.4,N/A,,Partly Cloudy,360,2012-10-26 16:15:00
11:35 AM,44.6,26.6,49,30.40,10.0,NE,12.7,18.4,N/A,,Clear,50,2012-10-26 16:35:00
11:55 AM,44.6,26.6,49,30.39,10.0,NNE,10.4,19.6,N/A,,Partly Cloudy,20,2012-10-26 16:55:00
12:15 PM,44.6,26.6,49,30.40,10.0,NNE,10.4,16.1,N/A,,Clear,20,2012-10-26 17:15:00
12:35 PM,46.4,26.6,46,30.39,10.0,North,9.2,20.7,N/A,,Clear,350,2012-10-26 17:35:00
12:55 PM,46.4,26.6,46,30.38,10.0,NNE,8.1,-,N/A,,Clear,20,2012-10-26 17:55:00
1:15 PM,46.4,26.6,46,30.37,10.0,NNE,12.7,20.7,N/A,,Clear,20,2012-10-26 18:15:00
1:35 PM,46.4,26.6,46,30.37,10.0,NNE,8.1,17.3,N/A,,Clear,30,2012-10-26 18:35:00
1:55 PM,46.4,26.6,46,30.36,10.0,NNE,6.9,19.6,N/A,,Clear,20,2012-10-26 18:55:00
2:15 PM,46.4,26.6,46,30.36,10.0,North,11.5,16.1,N/A,,Clear,350,2012-10-26 19:15:00
2:35 PM,46.4,26.6,46,30.35,10.0,North,6.9,21.9,N/A,,Clear,360,2012-10-26 19:35:00
2:55 PM,46.4,26.6,46,30.35,10.0,NNW,8.1,-,N/A,,Clear,330,2012-10-26 19:55:00
3:15 PM,46.4,26.6,46,30.35,10.0,North,8.1,-,N/A,,Clear,10,2012-10-26 20:15:00
3:35 PM,46.4,26.6,46,30.35,10.0,North,6.9,19.6,N/A,,Clear,350,2012-10-26 20:35:00
3:55 PM,46.4,26.6,46,30.34,10.0,NNW,5.8,-,N/A,,Clear,340,2012-10-26 20:55:00
4:15 PM,46.4,26.6,46,30.34,10.0,North,10.4,-,N/A,,Clear,360,2012-10-26 21:15:00
4:35 PM,46.4,26.6,46,30.34,10.0,North,10.4,-,N/A,,Clear,360,2012-10-26 21:35:00
4:55 PM,46.4,26.6,46,30.34,10.0,NNW,6.9,-,N/A,,Clear,340,2012-10-26 21:55:00
5:15 PM,44.6,26.6,49,30.34,10.0,NNW,5.8,-,N/A,,Clear,340,2012-10-26 22:15:00
5:35 PM,44.6,26.6,49,30.34,10.0,North,8.1,17.3,N/A,,Clear,360,2012-10-26 22:35:00
5:55 PM,44.6,26.6,49,30.34,10.0,North,6.9,-,N/A,,Clear,360,2012-10-26 22:55:00
6:15 PM,44.6,24.8,46,30.34,10.0,North,5.8,-,N/A,,Clear,350,2012-10-26 23:15:00
6:35 PM,42.8,24.8,49,30.35,10.0,North,5.8,-,N/A,,Clear,350,2012-10-26 23:35:00
6:55 PM,42.8,26.6,53,30.35,10.0,North,4.6,-,N/A,,Clear,350,2012-10-26 23:55:00
7:15 PM,41.0,26.6,57,30.36,10.0,NNW,4.6,-,N/A,,Clear,340,2012-10-27 00:15:00
7:35 PM,41.0,26.6,57,30.36,10.0,Calm,Calm,-,N/A,,Clear,0,2012-10-27 00:35:00
7:55 PM,39.2,26.6,61,30.36,10.0,NNW,3.5,-,N/A,,Clear,340,2012-10-27 00:55:00
8:15 PM,39.2,26.6,61,30.36,10.0,NNW,3.5,-,N/A,,Clear,340,2012-10-27 01:15:00
8:35 PM,39.2,26.6,61,30.36,10.0,NNW,4.6,-,N/A,,Clear,340,2012-10-27 01:35:00
8:55 PM,39.2,26.6,61,30.37,10.0,Calm,Calm,-,N/A,,Clear,0,2012-10-27 01:55:00
9:15 PM,37.4,26.6,65,30.36,10.0,North,3.5,-,N/A,,Clear,350,2012-10-27 02:15:00
9:35 PM,35.6,26.6,70,30.37,10.0,North,4.6,-,N/A,,Clear,350,2012-10-27 02:35:00
9:55 PM,35.6,26.6,70,30.36,10.0,NNW,3.5,-,N/A,,Clear,340,2012-10-27 02:55:00
10:15 PM,35.6,26.6,70,30.37,10.0,NNW,3.5,-,N/A,,Clear,330,2012-10-27 03:15:00
10:35 PM,35.6,26.6,70,30.37,10.0,NNW,3.5,-,N/A,,Clear,340,2012-10-27 03:35:00
10:55 PM,35.6,26.6,70,30.37,10.0,NNW,3.5,-,N/A,,Clear,340,2012-10-27 03:55:00
11:15 PM,35.6,26.6,70,30.37,10.0,NNW,3.5,-,N/A,,Clear,340,2012-10-27 04:15:00
11:35 PM,35.6,26.6,70,30.37,10.0,North,3.5,-,N/A,,Clear,360,2012-10-27 04:35:00
11:55 PM,35.6,26.6,70,30.37,10.0,North,3.5,-,N/A,,Clear,350,2012-10-27 04:55:00